Flag Weather past 2 weeks in Exeter, England, United Kingdom

Now
41 °F

Clear.


Feels Like: 39 °F
Forecast: N/A
Wind: 3 mph from North

Location: Exeter Airport

Current Time: Nov 23, 2014 at 8:01:36 PM

Latest Report: Nov 23, 2014 at 7:20 PM


Visibility: 10 mi

Pressure: 30.15 "Hg

Humidity: 87%

Dew point: 37 °F

Location of ExeterLocation

Historic Weather in Exeter — Graph

°F

Exeter temperature yesterday

Maximum temperature yesterday: 59 °F (at 1:50 PM)
Minimum temperature yesterday: 52 °F (at 5:20 PM)
Average temperature yesterday: 55 °F

Past Weeks' High & Low Weather Summary

 TemperatureHumidityPressure
High59 °F (Nov 22, 1:50 PM)100% (Nov 9, 2:20 AM)30.21 "Hg (Nov 9, 2:20 AM)
Low32 °F (Nov 9, 7:20 AM)63% (Nov 9, 2:20 PM)29.15 "Hg (Nov 11, 11:20 PM)
Average51 °F88%29.64 "Hg
* Reported Nov 8 6:20 PM — Nov 23 6:50 PM, Exeter, Weather by CustomWeather, © 2014

Note: Actual official high and low records may vary slightly from our data, if they occured in-between our weather recording intervals... More about our weather records

Advertising

Exeter weather history for previous 24 hours

 ConditionsComfort  
Time TempWeatherWind HumidityBarometerVisibility
6:50 PM
Nov 23
41 °FClear.5 mph87%30.15 "Hg10 mi
6:20 PM41 °FClear.3 mph87%30.12 "Hg10 mi
5:50 PM43 °FClear.5 mph87%30.12 "Hg10 mi
5:20 PM43 °FClear.6 mph87%30.12 "Hg10 mi
4:50 PM45 °FClear.7 mph81%30.09 "Hg10 mi
4:20 PM46 °FPassing clouds.8 mph82%30.09 "HgN/A
3:50 PM48 °FPassing clouds.9 mph76%30.09 "HgN/A
3:20 PM48 °FPassing clouds.10 mph82%30.09 "HgN/A
2:50 PM50 °FPassing clouds.13 mph76%30.07 "HgN/A
2:20 PM50 °FPassing clouds.13 mph76%30.07 "HgN/A
1:50 PM50 °FPassing clouds.13 mph76%30.07 "HgN/A
1:20 PM50 °FPassing clouds.9 mph82%30.07 "HgN/A
12:50 PM48 °FPassing clouds.5 mph87%30.07 "HgN/A
12:20 PM48 °FPassing clouds.5 mph87%30.07 "HgN/A
11:50 AM48 °FPassing clouds.6 mph87%30.07 "HgN/A
11:20 AM48 °FPassing clouds.7 mph87%30.07 "HgN/A
10:50 AM48 °FPassing clouds.6 mph87%30.07 "HgN/A
10:20 AM46 °FPassing clouds.3 mph93%30.07 "HgN/A
9:50 AM46 °FPassing clouds.6 mph87%30.07 "HgN/A
9:20 AM46 °FPassing clouds.6 mph87%30.04 "HgN/A
8:50 AM46 °FPassing clouds.5 mph87%30.04 "HgN/A
8:20 AM46 °FPassing clouds.3 mph87%30.04 "HgN/A
7:50 AM46 °FPassing clouds.6 mph87%30.04 "HgN/A
8:50 PM
Nov 22
52 °FPassing clouds.5 mph94%29.98 "HgN/A
8:20 PM52 °FPassing clouds.2 mph94%29.98 "HgN/A
Weather by CustomWeather, © 2014

See weather overviewHow to use our weather pages